Regional Weather Roundup
Issued by NWS

Current Version | Previous Version | Text Only | Print | Product List | Glossary On
Versions: 1 2 3 4 5 6 7 8 9 10 11 12 13 14 15 16 17 18 19 20 21 22 23 24 25 26 27 28 29 30 31 32 33 34 35 36 37 38 39 40 41 42 43 44 45 46 47 48 49 50
000
ASUS43 KLMK 122210
RWRKY
KENTUCKY REGIONAL WEATHER ROUNDUP
NATIONAL WEATHER SERVICE LOUISVILLE KY
500 PM EST TUE DEC 12 2017

NOTE "FAIR" INDICATES FEW OR NO CLOUDS BELOW 12,000 FEET
WITH NO SIGNIFICANT WEATHER AND/OR OBSTRUCTIONS TO VISIBILITY.

KYZ001>023-026-027-061>063-070>075-122300-
WESTERN AND SOUTH CENTRAL KENTUCKY

CITY           SKY/WX    TMP DP  RH WIND       PRES   REMARKS
PADUCAH        CLEAR     38   9  30 NW10      30.13S WCI  31
HENDERSON      CLEAR     33  10  38 NW10      30.12  WCI  25
OWENSBORO      PTCLDY    33   9  36 NW15      30.10S WCI  23
HOPKINSVILLE   PTCLDY    36   7  30 NW10      30.09S WCI  28
BOWLING GREEN  MOCLDY    35  10  35 NW8G22    30.08R WCI  29
GLASGOW        CLEAR     33  12  41 W12G23    30.05R WCI  24
$$

KYZ024-025-028>034-038-045-046-053-122300-
NORTH CENTRAL KENTUCKY

CITY           SKY/WX    TMP DP  RH WIND       PRES   REMARKS
LOUISVILLE/SDF MOCLDY    31   6  35 NW14G22   30.03R WCI  21
LOUISVILLE/LOU CLEAR     30   9  41 W14G21    30.04R WCI  19
FORT KNOX      PTCLDY    30   5  34 W12       30.02R WCI  20
$$

KYZ035>037-039>044-047>052-055>060-089>105-122300-
NORTHEAST KENTUCKY

CITY           SKY/WX    TMP DP  RH WIND       PRES   REMARKS
LEXINGTON      PTCLDY    29   6  38 NW14G23   29.97R WCI  18
COVINGTON      PTCLDY    26   9  48 NW15      29.96R WCI  14
FRANKFORT      PTCLDY    30   4  33 NW8       29.98R WCI  22
$$

KYZ054-064>069-076>088-106>120-122300-
SOUTHEAST KENTUCKY

CITY           SKY/WX    TMP DP  RH WIND       PRES   REMARKS
JACKSON        PTCLDY    29   7  39 NW12G29   29.90R WCI  19
LONDON         PTCLDY    32   6  33 NW13G21   29.94R WCI  22
SOMERSET       PTCLDY    32   0  25 W14G25    30.01R WCI  22
MIDDLESBORO    CLOUDY    35  16  45 NW15G21   29.92S WCI  25
MONTICELLO     PTCLDY    33   6  32 NW20G26   30.00R WCI  21
$$




USA.gov is the U.S. government's official web portal to all federal, state and local government web resources and services.